Location: Zagreb
(45.8000°N, 16.0000°E)
Time: 18:56:51
(UTC+02:00)

A-11 Canister half - Pass Details

Date: 12 August 2022
Orbit: 1524 x 1684 km, 47.3° (Epoch: 05 October)

Event Time Altitude Azimuth Distance (km) Brightness Sun altitude
Rises 14:33:39 0° 288° (WNW) 4,903 11.8 53.5°
Reaches altitude 10° 14:38:47 10° 267° (W) 3,882 11.7 52.9°
Maximum altitude 14:43:27 14° 238° (WSW) 3,496 11.8 52.3°
Drops below altitude 10° 14:48:05 10° 208° (SSW) 3,812 11.9 51.8°
Sets 14:53:06 0° 186° (S) 4,758 12.0 51.2°
